Regional Weather Roundup
Issued by NWS State College, PA

Home | Current Version | Previous Version | Graphics & Text | Print | Product List | Glossary On
Versions: 1 2 3 4 5 6 7 8 9 10 11 12 13 14 15 16 17 18 19 20 21 22 23 24 25 26 27 28 29 30 31 32 33 34 35 36 37 38 39 40 41 42 43 44 45 46 47 48 49 50
000
ASUS41 KCTP 021303
RWRCTP

REGIONAL WEATHER ROUNDUP
NATIONAL WEATHER SERVICE STATE COLLEGE PA
800 AM EST MON MAR 02 2015

Note: "fair" indicates few or no clouds below 12,000 feet with no
significant weather and/or obstructions to visibility.

* = STATION THAT DOES NOT REPORT PRECIPITATION /E.G. RAIN...SNOW...ETC/
    THUNDER OR FOG.

PAZ002>004-007>009-013>016-020>023-029>032-021400-
WESTERN PENNSYLVANIA

CITY           SKY/WX    TMP DP  RH WIND       PRES   REMARKS
ERIE           CLOUDY    21  15  78 W14G24    30.32R WCI   8
MEADVILLE      LGT SNOW  20  15  81 W13       30.28R WCI   7
FRANKLIN*      CLOUDY    19  14  79 W13G18    30.29R WCI   7
NEW CASTLE     FLURRIES  20  16  84 W9        30.37R WCI   9
BEAVER COUNTY  CLOUDY    21  18  86 W6        30.35R WCI  14
BUTLER*        PTSUNNY   21  16  79 W10       30.35R WCI  10
PITTSBURGH INT FLURRIES  21  17  84 W10       30.36R WCI  10
PITTSBURGH     LGT SNOW  22  14  71 NW10G21   30.36R WCI  11
INDIANA*       PTSUNNY   23  19  86 NW9G15    30.34R FOG     WCI  13
LATROBE        SNOW      25  23  93 W10       30.36R VSB 1/2 WCI  15
WASHINGTON CO* CLOUDY    23  18  80 NW9G17    30.40R WCI  13
$$

PAZ004>006-010>012-017>019-024>028-033>037-041-042-045-046-049>053-021400-
CENTRAL PENNSYLVANIA

CITY           SKY/WX    TMP DP  RH WIND       PRES   REMARKS
BRADFORD       LGT SNOW  18  12  77 W12G25    30.15R VSB 3/4 WCI   5
DUBOIS         LGT SNOW  19  16  88 W18       30.21R VSB 1   WCI   4
CLEARFIELD     LGT SNOW  21  14  74 W9        30.23R WCI  11
JOHNSTOWN      LGT SNOW  21  18  88 W16G30    30.20R VSB 3/4 WCI   7
ALTOONA        CLOUDY    27  18  69 NW14G23   30.21R
STATE COLLEGE  LGT SNOW  25  16  68 NW23G35   30.21R WCI  10
WILLIAMSPORT   CLOUDY    30  16  56 W17G26    30.19R
SELINSGROVE    CLOUDY    32  19  58 W10G20    30.20R
FT INDIANTOWN  PTSUNNY   33  24  68 W13G23    30.14R
CAPITAL CITY   MOSUNNY   35  26  69 NW15      30.16R
HARRISBURG     PTSUNNY   30  26  85 NW6       30.16R FOG
YORK           PTSUNNY   31  30  96 W5        30.15R FOG
$$

PAZ038>040-043-044-047-048-054-055-060>062-067>071-021400-
EASTERN PENNSYLVANIA

CITY           SKY/WX    TMP DP  RH WIND       PRES   REMARKS
SCRANTON       LGT SNOW  27  22  81 NW14      30.10R VSB 1
MOUNT POCONO   SNOW      24  20  84 NW15G23   30.00R VSB 1/2 WCI  11
ALLENTOWN      CLOUDY    31  26  82 N9        30.12R HAZE
QUAKERTOWN*    PTSUNNY   32  28  86 NW5       30.11R
READING        CLOUDY    30  26  85 NW5       30.13R FOG
LANCASTER      CLOUDY    29  28  96 W6        30.13R FOG
COATESVILLE    CLOUDY    32  32 100 NW9       30.13R FOG
POTTSTOWN      CLOUDY    30  29  96 W5        30.14R FOG
BLUE BELL      CLOUDY    32  32 100 NW3       30.12R
DOYLESTOWN     CLOUDY    32  30  92 W12       30.11R
WILLOW GROVE   NOT AVBL
NORTH PHILA    CLOUDY    36  29  75 NW12      30.14R HAZE
PHILADELPHIA   CLOUDY    33  31  92 W7        30.14R FOG
$$



USA.gov is the U.S. government's official web portal to all federal, state and local government web resources and services.